OBJECT BA, 43806

Orbit data source: Space-Track

You're viewing an Uncataloged Satellite

Recently launched and/or uncataloged satellites may have evolving metadata. Metadata may include but not limited to: Owner, Maufacturer, Bus, Motor, and Mission.

OBJECT BA, 43806 is a satellite in SSO that was launched on Mon, 03 Dec 2018 UTC via an FALCON 9 launch vehicle from the Air Force Western Test Range (AFWTR). Unknown objects in Earth's orbit typically refer to objects detected orbiting the Earth but have not yet been identified or cataloged. These objects could be anything from previously untracked satellites, spent rocket stages, debris from satellite collisions, or even natural meteoroids temporarily captured by Earth's gravity.

Loading next visibility...
Identifier
43806, 2018-099BA
Orbit
SSO
Country
Flag of TBDTBD
Related business
None
Manufacturer
Unknown
Mission
Non-operational Amateur Technology
Bus & Motor
Unknown
Mass
Unknown
Launch date (UTC)
2018-12-03 (8 years ago)
Launch vehicle
FALCON 9
Launch site
Air Force Western Test Range (AFWTR)
Object type
Unknown
Shape & HBR
Box, 0.1 m
Radar Cross Section
0.015 m², Medium (>0.1 m² and < 1m²)

Expand to show TLE details & history
Last TLE update: 2 days ago

TLE from 2 days ago
0 OBJECT BA
1 43806U 18099BA  26171.40542294  .00004528  00000-0  24008-3 0  9991
2 43806  97.3983 218.7361 0006014 328.0353  32.0515 15.15853274412920
Epoch: 2026-06-20T09:43Z
TLE epoch observation values (Epoch: 2026-06-20T09:43:48.542Z)
Latitude
0.00008°
Longitude
164.16332°
Altitude
517.959 km
Speed
7.606 km/s
True Right ascension
14h 34m 56s
True Declination
0° 00' 00"
Sunlit
Object was in full shadow at epoch
Visualization orbit readout
Latitude
Unknown
Longitude
Unknown
Altitude
Unknown
Speed
Unknown
Apparent Right ascension
Unknown
Apparent Declination
Unknown
Sunlit
N/A
Visualization observer readout
Local Sidereal Time
21:52:24
Azimuth
Unknown
Elevation
Unknown
Doppler factor
Unknown
Orbital elements
Apogee altitude
519.506 km
Perigee altitude
511.215 km
Semi-major axis
6,893.497 km
Eccentricity
0.0006
Inclination
97.3983°
RAAN
218.7361°
Arg. of periapsis
328.0353°
True anomaly
32.0881°
Mean anomaly
32.0515°
Eccentric anomaly
32.0698°
Mean motion
3.79213 °/min
Orbital period
94.93 mins
BSTAR
0.00024008
Loading maneuver chart data...
Computing Atmospheric mass density...

Documentation

Showing up to 5 results
|